Terminal Aerodrome Forecast
Issued by NWS Anchorage, AK

Home | Current Version | Previous Version | Text Only | Print | Product List | Glossary On
Versions: 1 2 3 4 5 6 7 8 9 10 11 12 13 14 15 16 17 18 19 20 21 22 23 24 25 26 27 28 29 30 31 32 33 34 35 36 37 38 39 40 41 42 43 44
000
FTAK31 PANC 180259 AAB
TAFANC
TAF AMD
PANC 180259Z 1803/1906 14011KT P6SM FEW040 SCT070 BKN200
     FM180600 04011KT P6SM VCSH SCT050 OVC090 WS020/12040KT
     FM181200 33010KT P6SM SCT050 OVC090 WS020/12040KT
     FM190000 15015G25KT P6SM SCT050 OVC090=

USA.gov is the U.S. government's official web portal to all federal, state and local government web resources and services.